Warning: Javascript must be enabled to use all the features on this page!


Page Loading - Please Wait...

Click to hideNews Bulletins

Peak Streamflow for the Nation

USGS 06719505 CLEAR CREEK AT GOLDEN, CO

Jefferson County, Colorado
Hydrologic Unit Code 10190004
Latitude  39°45'11", Longitude 105°14'05" NAD27
Drainage area 394  square miles
Gage datum 5,695 feet above NGVD29
Output formats
Table
Graph
Tab-separated file
peakfq (watstore) format
Reselect output format
Water
Year
Date Gage
Height
(feet)
Stream-
flow
(cfs)
1975 1975-07-09 4.31 1,190
1976 1976-06-10 3.86 823
1977 1977-06-08 3.75 688
1978 1978-06-16 4.42 1,220
1979 1979-06-17 4.63 1,460
1980 1980-06-13 5.10 1,860
1981 1981-06-10 4.06 868
1982 1982-06-30 5.55 1,380
1983 1983-07-10 6.44 2,370
1984 1984-05-25 5.44 1,520
1985 1985-06-09 5.24 1,600
1986 1986-06-20   1,390
1987 1987-06-09 3.956 958
1988 1988-06-22 4.58 960
1989 1989-06-20 3.99 729
1990 1990-06-12 4.272 995
1991 1991-06-16 4.75 1,200
1992 1992-06-26 4.09 851
1993 1993-06-18 4.78 1,160
1994 1994-06-04 4.002 735
1995 1995-06-17   2,3001
1996 1996-06-15 7.32 1,370
1997 1997-06-20 7.75 1,860
1998 1998-06-04 6.93 992
1999 1999-08-10 7.33 1,280
2000 2000-05-31 7.03 983
2001 2001-06-09 6.76 744
2002 2002-06-04 6.07 322
2003 2003-06-01 7.63 1,680
2004 2004-07-18 6.40 504
2005 2005-06-25 6.90 1,010
2006 2006-06-11 6.95 910
2007 2007-06-18 7.22 1,170
2008 2008-06-04 6.66 961
2009 2009-06-01 6.67 1,130
2010 2010-06-12 7.082 1,510
2011 2011-07-08 6.95 1,710
2012 2012-07-07 5.46 543
2013 2013-09-13 6.83 1,530
2014 2014-06-04 7.25 2,030
2015 2015-06-12 7.60 2,5409
2016 2016-06-12 7.15 1,8909
2017 2017-06-13 6.75 1,4209
2018 2018-05-28 5.92 756
2019 2019-07-02 6.92 1,390
2020 2020-06-07 6.26 899
2021 2021-06-09 6.37 940
?
  Peak Gage-Height Qualification Codes.
?
  Peak Streamflow Qualification Codes.